Regional Weather Roundup
Issued by NWS

Home | Current Version | Previous Version | Graphics & Text | Print | Product List | Glossary On
Versions: 1 2 3 4 5 6 7 8 9 10 11 12 13 14 15 16 17 18 19 20 21 22 23 24 25 26 27 28 29 30 31 32 33 34 35 36 37 38 39 40 41 42 43 44 45 46 47 48 49 50
000
ASUS43 KMKX 261011
RWRWI

WISCONSIN REGIONAL WEATHER ROUNDUP
NATIONAL WEATHER SERVICE MILWAUKEE/SULLIVAN WI
500 AM CDT SUN APR 26 2015

NOTE: "FAIR" INDICATES FEW OR NO CLOUDS BELOW 12,000 FEET WITH NO
SIGNIFICANT WEATHER AND/OR OBSTRUCTIONS TO VISIBILITY.

WIZ001-002-006>008-014>016-023>028-261100-
NORTHWEST WISCONSIN

CITY           SKY/WX    TMP DP  RH WIND       PRES   REMARKS
SUPERIOR ARPT  CLEAR     23  22  96 CALM      30.11R
ASHLAND        CLEAR     23  21  92 SW5       30.11R WCI  17
HAYWARD        CLEAR     26  21  81 NE6       30.07R WCI  19
SIREN          CLEAR     30  23  75 CALM      30.07S
CUMBERLAND     CLEAR     32  23  69 NE5       30.05R WCI  27
RICE LAKE      CLEAR     31  22  70 NE3       30.06R
CHETEK         CLEAR     35  23  62 CALM      30.05R
LADYSMITH      CLEAR     32  22  66 E3        30.05S
EAU CLAIRE     CLEAR     32  24  72 NE6       30.03R WCI  26
MENOMONIE      CLEAR     34  24  66 CALM      30.04R
NEW RICHMOND   CLEAR     31  22  71 NE5       30.04R WCI  26
OSCEOLA        CLEAR     32  22  67 CALM      30.07R
$$

WIZ003>005-009-010-017-018-261100-
NORTH CENTRAL WISCONSIN

CITY           SKY/WX    TMP DP  RH WIND       PRES   REMARKS
MANITOWISH WTR CLEAR     24  23  96 CALM      30.05R
ARBOR VITAE    CLEAR     27  20  77 CALM      30.04S
WOODRUFF       CLEAR     27  20  77 CALM      30.04S
RHINELANDER    CLEAR     28  20  71 N5        30.04S WCI  23
EAGLE RIVER    CLEAR     23  19  84 CALM      30.03S
LAND O LAKES   CLEAR     22  19  89 CALM      30.04S
PHILLIPS       CLEAR     28  19  71 CALM      30.04S
TOMAHAWK       CLEAR     27  21  77 CALM      30.05R
MEDFORD        CLEAR     29  22  74 NE7       30.03R WCI  22
MERRILL        CLEAR     28  21  77 N5        30.04R WCI  22
$$

WIZ029-030-035-036-043>047-261100-
CENTRAL WISCONSIN

CITY           SKY/WX    TMP DP  RH WIND       PRES   REMARKS
WAUSAU         CLEAR     32  21  64 CALM      30.02R
MOSINEE        CLEAR     32  21  64 N9        30.03R WCI  24
MARSHFIELD     CLEAR     34  21  59 NE7       30.02R WCI  28
STEVENS POINT  CLEAR     27  19  70 CALM      30.03R
WAUPACA        CLEAR     29  22  73 N5        30.03R WCI  24
WAUTOMA        CLEAR     33  21  61 N7        30.02S WCI  27
WISC RAPIDS    CLEAR     34  19  54 NE6       30.03R WCI  29
CAMP DOUGLAS   CLEAR     23  22  99 CALM      30.01R
$$

WIZ011>013-019>022-031-037>040-048>050-261100-
NORTHEAST WISCONSIN

CITY           SKY/WX    TMP DP  RH WIND       PRES   REMARKS
ANTIGO         CLEAR     28  21  75 N6        30.02S WCI  22
SHAWANO        CLEAR     35  19  52 N5        30.03S WCI  31
OCONTO         CLEAR     30  20  67 CALM      30.02S
STURGEON BAY   CLEAR     34  25  69 NW5       30.03R WCI  30
GREEN BAY      CLEAR     32  21  64 N6        30.02R WCI  26
MANITOWOC      CLEAR     34  26  72 NW7       30.01R WCI  28
APPLETON       CLEAR     30  21  69 N7        30.02R WCI  23
CLINTONVILLE   CLEAR     32  19  59 N3        30.02S
OSHKOSH        CLEAR     32  23  69 N7        30.01R WCI  26
$$

WIZ032>034-041-042-053>061-261100-
SOUTHWEST WISCONSIN

CITY           SKY/WX    TMP DP  RH WIND       PRES   REMARKS
LA CROSSE      CLEAR     33  25  72 CALM      30.01S
SPARTA         CLEAR     23  19  85 CALM      30.02S
VIROQUA        CLEAR     33  20  59 NE8       29.98S WCI  26
BOSCOBEL       CLEAR     27  22  81 CALM      30.00R
PRAIRIE DU CHI CLEAR     30  27  90 CALM      30.00R
PLATTEVILLE    CLEAR     31  22  70 N7        29.96S WCI  24
$$

WIZ056-057-062-063-064-067-068-261100-
SOUTH CENTRAL WISCONSIN

CITY           SKY/WX    TMP DP  RH WIND       PRES   REMARKS
REEDSBURG      FAIR      29  22  76 CALM      29.99S
BARABOO/DELLS  FAIR      32  22  65 NE8       30.00R WCI  25
LONE ROCK      CLEAR     27  21  78 S3        29.99R
MINERAL POINT  CLEAR     36  19  51 NE8       29.96R WCI  29
MADISON        CLEAR     33  24  69 N5        29.98R WCI  29
MIDDLETON      CLEAR     33  26  72 CALM      29.99R
WATERTOWN      CLEAR     32  28  84 N6        29.97R WCI  26
MONROE         CLEAR     32  27  80 N9        29.95R WCI  24
JANESVILLE     CLEAR     36  25  64 N3        29.95R
$$

WIZ051-052-058>065-066-070>072-261100-
SOUTHEAST WISCONSIN

CITY           SKY/WX    TMP DP  RH WIND       PRES   REMARKS
MILWAUKEE      PTCLDY    37  31  78 N10       29.97R WCI  30
WAUKESHA       CLEAR     32  28  86 N3        29.98R
MILWAUKEE/TIMM FAIR      34  28  80 N7        29.98R WCI  28
RACINE         CLEAR     36  32  85 N10       29.97R WCI  28
BURLINGTON     CLEAR     30  25  83 N3        29.95R
KENOSHA        CLEAR     34  29  82 N5        29.95R WCI  30
FOND DU LAC    CLEAR     36  26  67 NE10      30.01R WCI  28
SHEBOYGAN      CLEAR     33  25  72 N7        30.00R WCI  27
WEST BEND      CLEAR     32  28  86 N3        29.98S
JUNEAU         CLEAR     33  25  73 N8        30.00R WCI  26
$$

LSZ147-162-261100-
LAKE SUPERIOR

STATION/POSITION TIME  TEMP    WIND        PRES    WAVE
                       AIR SEA DIR/SP/G            HT/PER
                 (UTC) (F)     (DEG/KT/KT) (MB)    (FT/S)
W MID LAKE BUOY  0950   36 34   10/ 10/ 10 1020.4R   1
DEVILS ISLAND    1000   36     340/  4/  4 1020.0R
PORT WING        0900   26     160/  3/  4 1019.3R
SAXON HARBOR     0900   26      CALM  /  3 1018.6
$$

LMZ867-665-643>646-261100-
LAKE MICHIGAN

STATION/POSITION TIME  TEMP    WIND        PRES    WAVE
                       AIR SEA DIR/SP/G            HT/PER
                 (UTC) (F)     (DEG/KT/KT) (MB)    (FT/S)
CHAMBERS ISLAND  0900   35     340/  8/ 10 1016.3R
NORTHPORT PIER   0900   37     330/  9/ 11 1015.9R
SISTER BAY       0932   36      10/  6/  9   N/A
KEWAUNEE LAKESHO 0900   32     310/  5/  6 1015.1R
SHEBOYGAN LAKESH 1000   39      10/ 16/ 18 1016.5R
PORT WASHINGTON  0900   37     350/  6/  9 1015.6
MILWAUKEE LAKESH 0900   39      10/ 13/ 16   N/A
KENOSHA   LAKESH 1000   41      20/ 15/ 18 1014.2R
$$

TC  - TEMPERATURE IN CELSIUS
VSB - VISIBILITY IN STATUTE MILES
WCI - WIND CHILL INDEX
HX  - HEAT INDEX




USA.gov is the U.S. government's official web portal to all federal, state and local government web resources and services.